JST451 YBCG-YMML

Flight info

Callsign JST451
Flight time 2h 24m
Altitude 34000
Route GOMOL Q16 ISKIM Q35 DORSU H119 ML
Aircraft A321/M-SDE3FGHIRWY/LB1

Departure

Time 2026-05-08 03:59
Airport Gold Coast Airport (YBCG)

Arrival

Time 2026-05-08 06:23
Airport Melbourne Airport (YMML)
Time Latitude Longitude Altitude Speed Heading
2026-05-08 03:29 -28.16697 153.51161 26 ft 0 kts 60°
2026-05-08 03:51 -28.16701 153.51153 26 ft 3 kts 60°
2026-05-08 03:52 -28.16712 153.51131 26 ft 3 kts 61°
2026-05-08 03:52 -28.16722 153.51111 26 ft 3 kts 63°
2026-05-08 03:52 -28.16728 153.51089 26 ft 3 kts 105°
2026-05-08 03:52 -28.16717 153.51071 26 ft 3 kts 147°
2026-05-08 03:53 -28.16705 153.51063 26 ft 1 kts 150°
2026-05-08 03:53 -28.16704 153.51061 26 ft 0 kts 150°
2026-05-08 03:55 -28.16704 153.51062 26 ft 1 kts 150°
2026-05-08 03:55 -28.16753 153.51093 26 ft 15 kts 150°
2026-05-08 03:56 -28.16845 153.51131 30 ft 11 kts 197°
2026-05-08 03:56 -28.16912 153.51095 31 ft 11 kts 173°
2026-05-08 03:56 -28.16984 153.51134 30 ft 13 kts 150°
2026-05-08 03:56 -28.17099 153.51208 27 ft 23 kts 150°
2026-05-08 03:57 -28.17237 153.51295 29 ft 23 kts 151°
2026-05-08 03:57 -28.17375 153.51383 30 ft 23 kts 150°
2026-05-08 03:57 -28.17499 153.51445 30 ft 17 kts 180°
2026-05-08 03:57 -28.17576 153.51362 28 ft 15 kts 249°
2026-05-08 03:58 -28.17536 153.51269 28 ft 10 kts 330°
2026-05-08 03:58 -28.17514 153.51255 28 ft 21 kts 331°
2026-05-08 03:58 -28.17162 153.51033 27 ft 93 kts 330°
2026-05-08 03:58 -28.16414 153.50557 28 ft 151 kts 331°
2026-05-08 03:59 -28.15416 153.49939 502 ft 162 kts 334°
2026-05-08 03:59 -28.14290 153.49769 1103 ft 172 kts 16°
2026-05-08 03:59 -28.13374 153.50592 1828 ft 174 kts 59°
2026-05-08 03:59 -28.12830 153.51905 2059 ft 195 kts 66°
2026-05-08 04:00 -28.12297 153.53407 2215 ft 216 kts 68°
2026-05-08 04:00 -28.11726 153.55064 2458 ft 232 kts 68°
2026-05-08 04:00 -28.11420 153.56868 2993 ft 238 kts 100°
2026-05-08 04:00 -28.12105 153.58558 3405 ft 246 kts 138°
2026-05-08 04:01 -28.13552 153.59691 3717 ft 260 kts 157°
2026-05-08 04:01 -28.15241 153.60473 4344 ft 264 kts 162°
2026-05-08 04:01 -28.16977 153.61151 5072 ft 264 kts 163°
2026-05-08 04:01 -28.18716 153.61835 5814 ft 265 kts 163°
2026-05-08 04:02 -28.20449 153.62560 6542 ft 266 kts 162°
2026-05-08 04:02 -28.22200 153.63241 7163 ft 266 kts 173°
2026-05-08 04:02 -28.24033 153.63264 7736 ft 264 kts 194°
2026-05-08 04:02 -28.25719 153.62528 8328 ft 265 kts 214°
2026-05-08 04:03 -28.27059 153.61113 8940 ft 266 kts 235°
2026-05-08 04:03 -28.29088 153.57574 10202 ft 270 kts 238°
2026-05-08 04:03 -28.30139 153.55723 10426 ft 289 kts 238°
2026-05-08 04:04 -28.31266 153.53737 10552 ft 309 kts 238°
2026-05-08 04:04 -28.32466 153.51622 10726 ft 326 kts 238°
2026-05-08 04:04 -28.33708 153.49441 11184 ft 332 kts 238°
2026-05-08 04:04 -28.34970 153.47231 11736 ft 335 kts 238°
2026-05-08 04:05 -28.36241 153.45002 12310 ft 338 kts 238°
2026-05-08 04:05 -28.37518 153.42753 12869 ft 341 kts 238°
2026-05-08 04:05 -28.38810 153.40474 13415 ft 345 kts 238°
2026-05-08 04:05 -28.40110 153.38175 13973 ft 348 kts 238°
2026-05-08 04:06 -28.41426 153.35853 14491 ft 350 kts 238°
2026-05-08 04:06 -28.42750 153.33521 15030 ft 352 kts 238°
2026-05-08 04:06 -28.44083 153.31176 15562 ft 354 kts 238°
2026-05-08 04:06 -28.45423 153.28813 16148 ft 356 kts 239°
2026-05-08 04:07 -28.46767 153.26439 16748 ft 357 kts 239°
2026-05-08 04:07 -28.47656 153.24865 17122 ft 358 kts 239°
2026-05-08 04:07 -28.49008 153.22480 17660 ft 360 kts 237°
2026-05-08 04:07 -28.50684 153.20338 18152 ft 367 kts 224°
2026-05-08 04:08 -28.52608 153.18423 18633 ft 369 kts 224°
2026-05-08 04:08 -28.54552 153.16506 19078 ft 371 kts 224°
2026-05-08 04:08 -28.56511 153.14579 19517 ft 373 kts 224°
2026-05-08 04:08 -28.58479 153.12645 19970 ft 375 kts 224°
2026-05-08 04:09 -28.60465 153.10688 20401 ft 378 kts 225°
2026-05-08 04:09 -28.62460 153.08719 20830 ft 381 kts 225°
2026-05-08 04:09 -28.64470 153.06734 21250 ft 383 kts 225°
2026-05-08 04:09 -28.66486 153.04739 21681 ft 385 kts 225°
2026-05-08 04:10 -28.68516 153.02729 22151 ft 386 kts 225°
2026-05-08 04:10 -28.70548 153.00716 22590 ft 388 kts 226°
2026-05-08 04:10 -28.72561 152.98722 22983 ft 390 kts 226°
2026-05-08 04:10 -28.74611 152.96685 23369 ft 392 kts 226°
2026-05-08 04:11 -28.76672 152.94639 23732 ft 394 kts 226°
2026-05-08 04:11 -28.78747 152.92581 24062 ft 396 kts 226°
2026-05-08 04:11 -28.80828 152.90517 24392 ft 397 kts 227°
2026-05-08 04:11 -28.82916 152.88446 24718 ft 398 kts 227°
2026-05-08 04:12 -28.85008 152.86365 25047 ft 400 kts 227°
2026-05-08 04:12 -28.87105 152.84277 25382 ft 401 kts 227°
2026-05-08 04:12 -28.89206 152.82178 25719 ft 402 kts 227°
2026-05-08 04:12 -28.91319 152.80066 26018 ft 404 kts 227°
2026-05-08 04:13 -28.93446 152.77944 26318 ft 406 kts 227°
2026-05-08 04:13 -28.95583 152.75816 26623 ft 408 kts 227°
2026-05-08 04:13 -28.97731 152.73679 26885 ft 410 kts 228°
2026-05-08 04:13 -28.99883 152.71535 27198 ft 411 kts 228°
2026-05-08 04:14 -29.02042 152.69380 27497 ft 412 kts 228°
2026-05-08 04:14 -29.04205 152.67217 27779 ft 414 kts 229°
2026-05-08 04:14 -29.06347 152.65077 28058 ft 416 kts 229°
2026-05-08 04:14 -29.08528 152.62893 28328 ft 417 kts 229°
2026-05-08 04:15 -29.10714 152.60702 28647 ft 419 kts 229°
2026-05-08 04:15 -29.12908 152.58506 28934 ft 420 kts 229°
2026-05-08 04:15 -29.15114 152.56298 29205 ft 422 kts 229°
2026-05-08 04:15 -29.17322 152.54087 29484 ft 423 kts 229°
2026-05-08 04:16 -29.19541 152.51858 29732 ft 425 kts 229°
2026-05-08 04:16 -29.21759 152.49630 30075 ft 424 kts 229°
2026-05-08 04:16 -29.23976 152.47406 30406 ft 423 kts 230°
2026-05-08 04:16 -29.26194 152.45183 30718 ft 421 kts 230°
2026-05-08 04:17 -29.28390 152.42978 31053 ft 420 kts 230°
2026-05-08 04:17 -29.30582 152.40773 31435 ft 418 kts 230°
2026-05-08 04:17 -29.32763 152.38576 31772 ft 416 kts 230°
2026-05-08 04:17 -29.34929 152.36387 32101 ft 414 kts 231°
2026-05-08 04:18 -29.37084 152.34208 32480 ft 412 kts 231°
2026-05-08 04:18 -29.39235 152.32038 32835 ft 411 kts 231°
2026-05-08 04:18 -29.41375 152.29882 33198 ft 408 kts 231°
2026-05-08 04:18 -29.43475 152.27761 33512 ft 406 kts 232°
2026-05-08 04:19 -29.45597 152.25617 33803 ft 405 kts 232°
2026-05-08 04:19 -29.47712 152.23480 34028 ft 405 kts 232°
2026-05-08 04:19 -29.51969 152.19159 34106 ft 413 kts 232°
2026-05-08 04:20 -29.56310 152.14749 34083 ft 418 kts 232°
2026-05-08 04:20 -29.60683 152.10332 34081 ft 419 kts 232°
2026-05-08 04:21 -29.65053 152.05898 34080 ft 418 kts 232°
2026-05-08 04:21 -29.69382 152.01482 34086 ft 419 kts 232°
2026-05-08 04:22 -29.73744 151.97037 34124 ft 419 kts 231°
2026-05-08 04:22 -29.78117 151.92584 34103 ft 420 kts 231°
2026-05-08 04:23 -29.82494 151.88127 34108 ft 420 kts 231°
2026-05-08 04:23 -29.86869 151.83666 34110 ft 420 kts 231°
2026-05-08 04:24 -29.91246 151.79186 34123 ft 420 kts 232°
2026-05-08 04:24 -29.95609 151.74704 34150 ft 420 kts 231°
2026-05-08 04:25 -29.99981 151.70223 34141 ft 420 kts 231°
2026-05-08 04:25 -30.04351 151.65735 34151 ft 420 kts 231°
2026-05-08 04:26 -30.08690 151.61275 34137 ft 420 kts 231°
2026-05-08 04:26 -30.13057 151.56778 34150 ft 421 kts 231°
2026-05-08 04:27 -30.17424 151.52267 34153 ft 421 kts 231°
2026-05-08 04:27 -30.21797 151.47753 34154 ft 421 kts 231°
2026-05-08 04:28 -30.26173 151.43244 34164 ft 421 kts 231°
2026-05-08 04:28 -30.30542 151.38721 34165 ft 421 kts 231°
2026-05-08 04:29 -30.34913 151.34196 34168 ft 420 kts 230°
2026-05-08 04:29 -30.39238 151.29712 34152 ft 420 kts 230°
2026-05-08 04:30 -30.43591 151.25189 34163 ft 420 kts 230°
2026-05-08 04:30 -30.47950 151.20661 34171 ft 421 kts 230°
2026-05-08 04:31 -30.52310 151.16123 34179 ft 421 kts 230°
2026-05-08 04:31 -30.56668 151.11572 34202 ft 421 kts 229°
2026-05-08 04:32 -30.61025 151.07019 34205 ft 421 kts 229°
2026-05-08 04:32 -30.65382 151.02467 34183 ft 422 kts 229°
2026-05-08 04:33 -30.69743 150.97908 34187 ft 422 kts 229°
2026-05-08 04:33 -30.74115 150.93331 34214 ft 423 kts 228°
2026-05-08 04:34 -30.78449 150.88773 34208 ft 423 kts 228°
2026-05-08 04:34 -30.82830 150.84177 34212 ft 424 kts 228°
2026-05-08 04:35 -30.87209 150.79584 34211 ft 424 kts 228°
2026-05-08 04:35 -30.91589 150.74973 34199 ft 425 kts 228°
2026-05-08 04:36 -30.95982 150.70345 34227 ft 426 kts 227°
2026-05-08 04:36 -31.00380 150.65699 34219 ft 427 kts 227°
2026-05-08 04:37 -31.04782 150.61035 34213 ft 428 kts 227°
2026-05-08 04:37 -31.09167 150.56388 34211 ft 428 kts 227°
2026-05-08 04:38 -31.13617 150.51680 34215 ft 429 kts 227°
2026-05-08 04:38 -31.18042 150.46984 34191 ft 431 kts 227°
2026-05-08 04:39 -31.22475 150.42274 34188 ft 431 kts 227°
2026-05-08 04:39 -31.26888 150.37571 34199 ft 432 kts 227°
2026-05-08 04:40 -31.31335 150.32837 34214 ft 433 kts 227°
2026-05-08 04:40 -31.35792 150.28075 34191 ft 434 kts 226°
2026-05-08 04:41 -31.40265 150.23299 34184 ft 436 kts 226°
2026-05-08 04:41 -31.44748 150.18514 34181 ft 436 kts 226°
2026-05-08 04:42 -31.49236 150.13712 34191 ft 437 kts 227°
2026-05-08 04:42 -31.53722 150.08901 34211 ft 437 kts 226°
2026-05-08 04:43 -31.58202 150.04086 34219 ft 437 kts 226°
2026-05-08 04:43 -31.62677 149.99274 34220 ft 437 kts 226°
2026-05-08 04:44 -31.67157 149.94452 34213 ft 437 kts 226°
2026-05-08 04:44 -31.71625 149.89620 34233 ft 436 kts 226°
2026-05-08 04:45 -31.76089 149.84795 34228 ft 436 kts 226°
2026-05-08 04:45 -31.80518 149.80009 34231 ft 435 kts 226°
2026-05-08 04:46 -31.84963 149.75195 34225 ft 434 kts 226°
2026-05-08 04:46 -31.89408 149.70379 34232 ft 433 kts 226°
2026-05-08 04:47 -31.93836 149.65575 34227 ft 433 kts 226°
2026-05-08 04:47 -31.98261 149.60763 34224 ft 433 kts 226°
2026-05-08 04:48 -32.02689 149.55947 34216 ft 433 kts 226°
2026-05-08 04:48 -32.07113 149.51118 34221 ft 434 kts 226°
2026-05-08 04:49 -32.11535 149.46282 34225 ft 434 kts 226°
2026-05-08 04:49 -32.15955 149.41438 34227 ft 434 kts 226°
2026-05-08 04:50 -32.20381 149.36592 34229 ft 434 kts 226°
2026-05-08 04:50 -32.24808 149.31748 34235 ft 433 kts 225°
2026-05-08 04:51 -32.29215 149.26908 34223 ft 433 kts 225°
2026-05-08 04:51 -32.33628 149.22056 34222 ft 433 kts 225°
2026-05-08 04:52 -32.37996 149.17224 34225 ft 433 kts 226°
2026-05-08 04:52 -32.42226 149.12155 34244 ft 432 kts 228°
2026-05-08 04:53 -32.46335 149.06967 34238 ft 431 kts 228°
2026-05-08 04:53 -32.50451 149.01813 34213 ft 431 kts 227°
2026-05-08 04:54 -32.54601 148.96687 34208 ft 431 kts 227°
2026-05-08 04:54 -32.58773 148.91559 34222 ft 432 kts 227°
2026-05-08 04:55 -32.62934 148.86423 34237 ft 431 kts 226°
2026-05-08 04:55 -32.67080 148.81288 34241 ft 430 kts 226°
2026-05-08 04:56 -32.71219 148.76150 34248 ft 430 kts 226°
2026-05-08 04:56 -32.74660 148.71877 34235 ft 430 kts 226°
2026-05-08 04:57 -32.78796 148.66732 34262 ft 430 kts 226°
2026-05-08 04:57 -32.82925 148.61589 34259 ft 429 kts 226°
2026-05-08 04:58 -32.87045 148.56458 34264 ft 428 kts 226°
2026-05-08 04:58 -32.91153 148.51331 34259 ft 428 kts 226°
2026-05-08 04:59 -32.95249 148.46201 34248 ft 427 kts 226°
2026-05-08 04:59 -32.99346 148.41061 34247 ft 428 kts 226°
2026-05-08 05:00 -33.03448 148.35911 34251 ft 428 kts 226°
2026-05-08 05:00 -33.07520 148.30795 34251 ft 428 kts 226°
2026-05-08 05:01 -33.11616 148.25637 34261 ft 428 kts 226°
2026-05-08 05:01 -33.16098 148.20999 34260 ft 427 kts 218°
2026-05-08 05:02 -33.20806 148.16670 34247 ft 427 kts 217°
2026-05-08 05:02 -33.25508 148.12319 34241 ft 428 kts 218°
2026-05-08 05:03 -33.30215 148.07967 34262 ft 427 kts 218°
2026-05-08 05:03 -33.34913 148.03623 34266 ft 426 kts 218°
2026-05-08 05:04 -33.39600 147.99281 34258 ft 426 kts 218°
2026-05-08 05:04 -33.44280 147.94930 34258 ft 425 kts 218°
2026-05-08 05:05 -33.48924 147.90608 34246 ft 425 kts 217°
2026-05-08 05:05 -33.53600 147.86261 34248 ft 425 kts 217°
2026-05-08 05:06 -33.58273 147.81903 34247 ft 425 kts 217°
2026-05-08 05:06 -33.62945 147.77541 34253 ft 425 kts 217°
2026-05-08 05:07 -33.67616 147.73176 34255 ft 425 kts 218°
2026-05-08 05:07 -33.72277 147.68812 34261 ft 424 kts 218°
2026-05-08 05:08 -33.76933 147.64449 34230 ft 424 kts 217°
2026-05-08 05:08 -33.81556 147.60108 34230 ft 425 kts 217°
2026-05-08 05:09 -33.86221 147.55727 34232 ft 426 kts 217°
2026-05-08 05:09 -33.90891 147.51333 34242 ft 426 kts 217°
2026-05-08 05:10 -33.97891 147.44723 34252 ft 426 kts 217°
2026-05-08 05:11 -34.02556 147.40309 34255 ft 426 kts 218°
2026-05-08 05:11 -34.07217 147.35901 34244 ft 426 kts 217°
2026-05-08 05:12 -34.11882 147.31483 34235 ft 426 kts 217°
2026-05-08 05:12 -34.16546 147.27055 34248 ft 426 kts 218°
2026-05-08 05:13 -34.21207 147.22625 34238 ft 426 kts 218°
2026-05-08 05:13 -34.25863 147.18192 34249 ft 426 kts 218°
2026-05-08 05:14 -34.30518 147.13750 34243 ft 426 kts 218°
2026-05-08 05:14 -34.35176 147.09309 34237 ft 426 kts 218°
2026-05-08 05:15 -34.39807 147.04881 34240 ft 427 kts 218°
2026-05-08 05:15 -34.44474 147.00420 34236 ft 428 kts 218°
2026-05-08 05:16 -34.49146 146.95942 34238 ft 428 kts 218°
2026-05-08 05:16 -34.53813 146.91453 34253 ft 428 kts 218°
2026-05-08 05:17 -34.58476 146.86960 34255 ft 428 kts 218°
2026-05-08 05:17 -34.63144 146.82467 34238 ft 428 kts 218°
2026-05-08 05:18 -34.67818 146.77960 34252 ft 429 kts 218°
2026-05-08 05:18 -34.72489 146.73444 34250 ft 429 kts 218°
2026-05-08 05:19 -34.77167 146.68923 34260 ft 430 kts 218°
2026-05-08 05:19 -34.81816 146.64420 34255 ft 430 kts 218°
2026-05-08 05:20 -34.86494 146.59887 34270 ft 430 kts 218°
2026-05-08 05:20 -34.91177 146.55348 34255 ft 430 kts 218°
2026-05-08 05:21 -34.95855 146.50795 34253 ft 430 kts 218°
2026-05-08 05:21 -35.00529 146.46223 34267 ft 431 kts 218°
2026-05-08 05:22 -35.05207 146.41656 34257 ft 431 kts 218°
2026-05-08 05:22 -35.09888 146.37086 34257 ft 431 kts 218°
2026-05-08 05:23 -35.14578 146.32504 34254 ft 431 kts 218°
2026-05-08 05:23 -35.19235 146.27943 34253 ft 432 kts 218°
2026-05-08 05:24 -35.23925 146.23330 34255 ft 432 kts 218°
2026-05-08 05:24 -35.28612 146.18711 34261 ft 433 kts 218°
2026-05-08 05:25 -35.33305 146.14093 34263 ft 433 kts 218°
2026-05-08 05:25 -35.38004 146.09464 34261 ft 433 kts 218°
2026-05-08 05:26 -35.42701 146.04823 34261 ft 434 kts 218°
2026-05-08 05:26 -35.47368 146.00200 34255 ft 434 kts 218°
2026-05-08 05:27 -35.52095 145.95522 34255 ft 434 kts 218°
2026-05-08 05:27 -35.56792 145.90857 34262 ft 434 kts 218°
2026-05-08 05:28 -35.61481 145.86190 34264 ft 434 kts 218°
2026-05-08 05:28 -35.66137 145.81540 34264 ft 434 kts 218°
2026-05-08 05:29 -35.70835 145.76859 34249 ft 434 kts 218°
2026-05-08 05:29 -35.75537 145.72173 34253 ft 435 kts 218°
2026-05-08 05:30 -35.80231 145.67474 34274 ft 435 kts 218°
2026-05-08 05:30 -35.84927 145.62771 34252 ft 435 kts 218°
2026-05-08 05:31 -35.89625 145.58062 34253 ft 435 kts 218°
2026-05-08 05:31 -35.94324 145.53337 34257 ft 436 kts 218°
2026-05-08 05:32 -35.99026 145.48608 34252 ft 436 kts 217°
2026-05-08 05:32 -36.01382 145.46236 33851 ft 437 kts 217°
2026-05-08 05:32 -36.03737 145.43860 33352 ft 436 kts 218°
2026-05-08 05:32 -36.06060 145.41510 32877 ft 436 kts 218°
2026-05-08 05:33 -36.08410 145.39130 32384 ft 437 kts 218°
2026-05-08 05:33 -36.10764 145.36745 31890 ft 438 kts 218°
2026-05-08 05:33 -36.13122 145.34354 31393 ft 438 kts 218°
2026-05-08 05:33 -36.15483 145.31961 30891 ft 439 kts 218°
2026-05-08 05:34 -36.17849 145.29563 30381 ft 439 kts 218°
2026-05-08 05:34 -36.20214 145.27165 29837 ft 440 kts 218°
2026-05-08 05:34 -36.22586 145.24762 29344 ft 442 kts 218°
2026-05-08 05:34 -36.24972 145.22341 28837 ft 444 kts 218°
2026-05-08 05:35 -36.27363 145.19908 28353 ft 446 kts 218°
2026-05-08 05:35 -36.29760 145.17466 27850 ft 447 kts 218°
2026-05-08 05:35 -36.32171 145.15012 27355 ft 448 kts 218°
2026-05-08 05:35 -36.34577 145.12559 26882 ft 446 kts 218°
2026-05-08 05:36 -36.36967 145.10121 26391 ft 443 kts 218°
2026-05-08 05:36 -36.39309 145.07732 25944 ft 440 kts 218°
2026-05-08 05:36 -36.41666 145.05323 25486 ft 438 kts 218°
2026-05-08 05:36 -36.44008 145.02924 25028 ft 435 kts 218°
2026-05-08 05:37 -36.46336 145.00534 24569 ft 433 kts 218°
2026-05-08 05:37 -36.48653 144.98157 24122 ft 430 kts 218°
2026-05-08 05:37 -36.50959 144.95795 23624 ft 428 kts 218°
2026-05-08 05:37 -36.53244 144.93451 23145 ft 425 kts 218°
2026-05-08 05:38 -36.55516 144.91118 22671 ft 422 kts 218°
2026-05-08 05:38 -36.57772 144.88798 22198 ft 420 kts 218°
2026-05-08 05:38 -36.60011 144.86492 21711 ft 417 kts 218°
2026-05-08 05:38 -36.62238 144.84201 21228 ft 414 kts 218°
2026-05-08 05:39 -36.64450 144.81929 20738 ft 411 kts 218°
2026-05-08 05:39 -36.66641 144.79675 20233 ft 408 kts 218°
2026-05-08 05:39 -36.68818 144.77430 19693 ft 404 kts 218°
2026-05-08 05:39 -36.70975 144.75199 19154 ft 401 kts 219°
2026-05-08 05:40 -36.73114 144.72986 18645 ft 398 kts 219°
2026-05-08 05:40 -36.75237 144.70791 18072 ft 395 kts 218°
2026-05-08 05:40 -36.77342 144.68617 17552 ft 391 kts 218°
2026-05-08 05:40 -36.79606 144.66787 17023 ft 387 kts 204°
2026-05-08 05:41 -36.82183 144.65905 16524 ft 385 kts 187°
2026-05-08 05:41 -36.84855 144.66061 16015 ft 385 kts 173°
2026-05-08 05:41 -36.87490 144.66646 15499 ft 383 kts 172°
2026-05-08 05:41 -36.90104 144.67235 14988 ft 380 kts 172°
2026-05-08 05:42 -36.92695 144.67817 14472 ft 377 kts 172°
2026-05-08 05:42 -36.95270 144.68392 13942 ft 374 kts 172°
2026-05-08 05:42 -36.97826 144.68958 13428 ft 371 kts 172°
2026-05-08 05:42 -37.00327 144.69510 13224 ft 369 kts 172°
2026-05-08 05:43 -37.02854 144.70065 13253 ft 369 kts 172°
2026-05-08 05:43 -37.05384 144.70623 12791 ft 364 kts 172°
2026-05-08 05:43 -37.07767 144.71159 12449 ft 332 kts 172°
2026-05-08 05:43 -37.09938 144.71651 12158 ft 304 kts 173°
2026-05-08 05:44 -37.11971 144.72105 11529 ft 292 kts 173°
2026-05-08 05:44 -37.13927 144.72537 11065 ft 276 kts 173°
2026-05-08 05:44 -37.15782 144.72947 10521 ft 267 kts 173°
2026-05-08 05:44 -37.16986 144.73212 10080 ft 264 kts 173°
2026-05-08 05:45 -37.18784 144.73646 9467 ft 264 kts 171°
2026-05-08 05:45 -37.20590 144.74120 8995 ft 266 kts 171°
2026-05-08 05:45 -37.22398 144.74607 8639 ft 264 kts 171°
2026-05-08 05:45 -37.24202 144.75098 8172 ft 267 kts 171°
2026-05-08 05:46 -37.25991 144.75585 7921 ft 258 kts 171°
2026-05-08 05:46 -37.27736 144.76056 7228 ft 255 kts 171°
2026-05-08 05:46 -37.29431 144.76512 6870 ft 239 kts 171°
2026-05-08 05:46 -37.31020 144.76942 6442 ft 229 kts 171°
2026-05-08 05:47 -37.32539 144.77350 6301 ft 224 kts 171°
2026-05-08 05:47 -37.34074 144.77726 6173 ft 224 kts 174°
2026-05-08 05:47 -37.35638 144.78019 5815 ft 229 kts 175°
2026-05-08 05:47 -37.37206 144.78283 5551 ft 226 kts 176°
2026-05-08 05:48 -37.38779 144.78548 5054 ft 233 kts 175°
2026-05-08 05:48 -37.40404 144.78854 4655 ft 235 kts 174°
2026-05-08 05:48 -37.41981 144.79152 4481 ft 228 kts 175°
2026-05-08 05:48 -37.43537 144.79442 4371 ft 218 kts 175°
2026-05-08 05:49 -37.44994 144.79713 4294 ft 205 kts 175°
2026-05-08 05:49 -37.46375 144.79969 4176 ft 197 kts 176°
2026-05-08 05:49 -37.47714 144.80217 3956 ft 193 kts 176°
2026-05-08 05:49 -37.49035 144.80461 3707 ft 192 kts 176°
2026-05-08 05:50 -37.50336 144.80702 3470 ft 191 kts 177°
2026-05-08 05:50 -37.51634 144.80944 3221 ft 182 kts 176°
2026-05-08 05:50 -37.52824 144.81168 2975 ft 164 kts 176°
2026-05-08 05:50 -37.53910 144.81370 2757 ft 152 kts 177°
2026-05-08 05:51 -37.54921 144.81558 2578 ft 145 kts 178°
2026-05-08 05:51 -37.55904 144.81739 2379 ft 142 kts 177°
2026-05-08 05:51 -37.56878 144.81919 2179 ft 142 kts 176°
2026-05-08 05:51 -37.57850 144.82100 1987 ft 141 kts 178°
2026-05-08 05:52 -37.58813 144.82279 1791 ft 141 kts 178°
2026-05-08 05:52 -37.59785 144.82460 1588 ft 140 kts 176°
2026-05-08 05:52 -37.60747 144.82640 1394 ft 140 kts 173°
2026-05-08 05:52 -37.61714 144.82834 1204 ft 139 kts 174°
2026-05-08 05:53 -37.62682 144.83010 1022 ft 138 kts 176°
2026-05-08 05:53 -37.63657 144.83183 821 ft 143 kts 172°
2026-05-08 05:53 -37.64625 144.83371 662 ft 141 kts 174°
2026-05-08 05:53 -37.65575 144.83543 454 ft 140 kts 174°
2026-05-08 05:54 -37.66467 144.83718 470 ft 130 kts 174°
2026-05-08 05:54 -37.67408 144.83875 1100 ft 141 kts 174°
2026-05-08 05:54 -37.68435 144.84090 1733 ft 162 kts 174°
2026-05-08 05:54 -37.69625 144.84412 2319 ft 187 kts 172°
2026-05-08 05:55 -37.70975 144.84784 2574 ft 206 kts 172°
2026-05-08 05:55 -37.72409 144.85177 3141 ft 212 kts 172°
2026-05-08 05:55 -37.73844 144.85590 3795 ft 218 kts 172°
2026-05-08 05:55 -37.75310 144.86025 3965 ft 216 kts 171°
2026-05-08 05:56 -37.76669 144.86898 4005 ft 229 kts 142°
2026-05-08 05:56 -37.77506 144.88661 4010 ft 244 kts 110°
2026-05-08 05:56 -37.77649 144.90841 4012 ft 253 kts 94°
2026-05-08 05:56 -37.77582 144.93068 4009 ft 253 kts 92°
2026-05-08 05:57 -37.77483 144.95291 4012 ft 253 kts 93°
2026-05-08 05:57 -37.77367 144.97502 4008 ft 252 kts 92°
2026-05-08 05:57 -37.77254 144.99706 4009 ft 251 kts 92°
2026-05-08 05:57 -37.77145 145.01909 4014 ft 251 kts 92°
2026-05-08 05:58 -37.76799 145.04079 4007 ft 258 kts 67°
2026-05-08 05:58 -37.75664 145.05840 4008 ft 262 kts 34°
2026-05-08 05:58 -37.73999 145.06688 4009 ft 259 kts
2026-05-08 05:58 -37.72212 145.06729 4007 ft 256 kts 353°
2026-05-08 05:59 -37.70424 145.06610 4009 ft 257 kts 352°
2026-05-08 05:59 -37.68641 145.06473 4008 ft 256 kts 352°
2026-05-08 05:59 -37.66857 145.06328 4009 ft 257 kts 352°
2026-05-08 05:59 -37.65093 145.06078 4006 ft 254 kts 344°
2026-05-08 06:00 -37.63365 145.05622 4006 ft 253 kts 342°
2026-05-08 06:00 -37.61654 145.05124 4008 ft 253 kts 342°
2026-05-08 06:00 -37.59934 145.04622 4009 ft 254 kts 342°
2026-05-08 06:00 -37.58215 145.04109 4007 ft 255 kts 342°
2026-05-08 06:01 -37.56486 145.03590 4007 ft 256 kts 342°
2026-05-08 06:01 -37.54760 145.03073 4005 ft 255 kts 342°
2026-05-08 06:01 -37.53031 145.02550 4005 ft 255 kts 342°
2026-05-08 06:01 -37.51306 145.02026 4003 ft 255 kts 342°
2026-05-08 06:02 -37.49582 145.01506 4004 ft 255 kts 342°
2026-05-08 06:02 -37.47859 145.00975 4004 ft 254 kts 341°
2026-05-08 06:02 -37.46127 145.00450 4006 ft 259 kts 341°
2026-05-08 06:02 -37.44369 144.99932 4002 ft 259 kts 342°
2026-05-08 06:03 -37.42613 144.99409 3999 ft 260 kts 342°
2026-05-08 06:03 -37.40883 144.98868 3999 ft 258 kts 336°
2026-05-08 06:03 -37.39389 144.97741 3998 ft 241 kts 303°
2026-05-08 06:03 -37.38645 144.95965 3999 ft 223 kts 272°
2026-05-08 06:04 -37.38534 144.94050 4000 ft 219 kts 263°
2026-05-08 06:04 -37.38546 144.92167 4000 ft 218 kts 262°
2026-05-08 06:04 -37.38575 144.90254 4000 ft 218 kts 262°
2026-05-08 06:04 -37.38773 144.88403 3995 ft 209 kts 240°
2026-05-08 06:05 -37.39518 144.86872 4020 ft 199 kts 230°
2026-05-08 06:05 -37.40402 144.85577 4001 ft 191 kts 223°
2026-05-08 06:05 -37.41336 144.84399 4000 ft 189 kts 222°
2026-05-08 06:05 -37.42269 144.83233 4001 ft 188 kts 221°
2026-05-08 06:06 -37.43197 144.82064 4008 ft 190 kts 222°
2026-05-08 06:06 -37.44145 144.80916 4004 ft 188 kts 216°
2026-05-08 06:06 -37.45291 144.80162 4004 ft 187 kts 197°
2026-05-08 06:06 -37.46588 144.80009 4005 ft 191 kts 178°
2026-05-08 06:07 -37.47913 144.80248 3880 ft 191 kts 176°
2026-05-08 06:07 -37.49222 144.80494 3654 ft 190 kts 176°
2026-05-08 06:07 -37.50528 144.80738 3431 ft 188 kts 176°
2026-05-08 06:07 -37.51762 144.80971 3192 ft 169 kts 176°
2026-05-08 06:08 -37.52872 144.81178 2957 ft 153 kts 176°
2026-05-08 06:08 -37.53900 144.81368 2752 ft 146 kts 176°
2026-05-08 06:08 -37.54881 144.81549 2578 ft 141 kts 177°
2026-05-08 06:08 -37.55850 144.81729 2382 ft 140 kts 177°
2026-05-08 06:09 -37.56816 144.81908 2189 ft 139 kts 176°
2026-05-08 06:09 -37.57810 144.82092 2100 ft 157 kts 174°
2026-05-08 06:09 -37.58883 144.82370 2374 ft 159 kts 172°
2026-05-08 06:09 -37.59980 144.82694 2492 ft 165 kts 172°
2026-05-08 06:10 -37.61172 144.83062 2617 ft 189 kts 172°
2026-05-08 06:10 -37.62528 144.83451 2856 ft 209 kts 172°
2026-05-08 06:10 -37.63961 144.83905 3572 ft 216 kts 163°
2026-05-08 06:10 -37.65187 144.85042 3909 ft 230 kts 133°
2026-05-08 06:11 -37.65807 144.86968 3996 ft 244 kts 102°
2026-05-08 06:11 -37.65821 144.89136 4009 ft 249 kts 93°
2026-05-08 06:11 -37.65716 144.91329 4012 ft 251 kts 92°
2026-05-08 06:11 -37.65600 144.93521 4010 ft 251 kts 91°
2026-05-08 06:12 -37.65488 144.95714 4012 ft 250 kts 92°
2026-05-08 06:12 -37.65375 144.97899 4010 ft 250 kts 92°
2026-05-08 06:12 -37.65222 145.00084 4008 ft 252 kts 83°
2026-05-08 06:12 -37.64471 145.02105 4013 ft 261 kts 50°
2026-05-08 06:13 -37.63038 145.03419 4012 ft 260 kts 18°
2026-05-08 06:13 -37.61265 145.03698 4011 ft 253 kts 348°
2026-05-08 06:13 -37.59532 145.03320 4009 ft 253 kts 343°
2026-05-08 06:13 -37.57830 145.02832 4008 ft 255 kts 342°
2026-05-08 06:14 -37.56103 145.02319 4007 ft 255 kts 342°
2026-05-08 06:14 -37.54379 145.01805 4008 ft 255 kts 342°
2026-05-08 06:14 -37.52650 145.01281 4006 ft 255 kts 342°
2026-05-08 06:14 -37.50925 145.00760 3999 ft 255 kts 341°
2026-05-08 06:15 -37.49177 145.00242 4003 ft 259 kts 342°
2026-05-08 06:15 -37.47425 144.99716 4004 ft 259 kts 342°
2026-05-08 06:15 -37.45669 144.99189 4004 ft 259 kts 341°
2026-05-08 06:15 -37.43933 144.98622 3997 ft 255 kts 333°
2026-05-08 06:16 -37.42503 144.97494 4017 ft 234 kts 308°
2026-05-08 06:16 -37.41608 144.95889 4003 ft 218 kts 284°
2026-05-08 06:16 -37.41274 144.94100 4008 ft 205 kts 264°
2026-05-08 06:16 -37.41447 144.92368 4001 ft 196 kts 246°
2026-05-08 06:17 -37.42571 144.89325 4004 ft 192 kts 239°
2026-05-08 06:17 -37.43153 144.87818 4000 ft 192 kts 238°
2026-05-08 06:17 -37.43740 144.86300 3869 ft 192 kts 238°
2026-05-08 06:18 -37.44322 144.84787 3792 ft 192 kts 238°
2026-05-08 06:18 -37.44907 144.83282 3743 ft 190 kts 236°
2026-05-08 06:18 -37.45695 144.81980 3701 ft 185 kts 221°
2026-05-08 06:18 -37.46733 144.81032 3658 ft 185 kts 207°
2026-05-08 06:19 -37.47948 144.80502 3620 ft 186 kts 192°
2026-05-08 06:19 -37.49238 144.80495 3569 ft 188 kts 176°
2026-05-08 06:19 -37.50530 144.80736 3412 ft 183 kts 176°
2026-05-08 06:19 -37.51720 144.80962 3182 ft 163 kts 176°
2026-05-08 06:20 -37.52795 144.81163 2965 ft 150 kts 176°
2026-05-08 06:20 -37.53804 144.81349 2779 ft 145 kts 176°
2026-05-08 06:20 -37.54794 144.81532 2575 ft 143 kts 176°
2026-05-08 06:20 -37.55775 144.81714 2414 ft 140 kts 176°
2026-05-08 06:21 -37.56736 144.81893 2206 ft 140 kts 175°
2026-05-08 06:21 -37.57693 144.82071 2008 ft 140 kts 175°
2026-05-08 06:21 -37.58642 144.82247 1810 ft 139 kts 176°
2026-05-08 06:21 -37.59597 144.82425 1628 ft 139 kts 176°
2026-05-08 06:22 -37.60569 144.82606 1432 ft 140 kts 174°
2026-05-08 06:22 -37.61527 144.82785 1234 ft 138 kts 173°
2026-05-08 06:22 -37.62481 144.82954 1044 ft 142 kts 174°
2026-05-08 06:22 -37.63434 144.83139 881 ft 139 kts 171°
2026-05-08 06:23 -37.64386 144.83321 675 ft 136 kts 172°
2026-05-08 06:23 -37.65348 144.83493 481 ft 140 kts 172°
2026-05-08 06:23 -37.66252 144.83665 414 ft 112 kts 171°
2026-05-08 06:23 -37.66836 144.83775 393 ft 45 kts 171°
2026-05-08 06:24 -37.67045 144.83872 384 ft 23 kts 149°
2026-05-08 06:24 -37.67131 144.83954 381 ft 9 kts 139°
2026-05-08 06:24 -37.67156 144.83979 380 ft 5 kts 141°
2026-05-08 06:24 -37.67173 144.83997 380 ft 0 kts 141°
2026-05-08 06:25 -37.67188 144.84013 379 ft 10 kts 140°
2026-05-08 06:25 -37.67223 144.84120 379 ft 15 kts 85°
2026-05-08 06:25 -37.67246 144.84239 380 ft 14 kts 124°
2026-05-08 06:25 -37.67337 144.84294 379 ft 16 kts 170°
2026-05-08 06:26 -37.67456 144.84318 376 ft 19 kts 172°
2026-05-08 06:26 -37.67594 144.84340 372 ft 21 kts 172°
2026-05-08 06:26 -37.67748 144.84371 367 ft 18 kts 172°
2026-05-08 06:26 -37.67836 144.84437 365 ft 15 kts 95°
2026-05-08 06:27 -37.67817 144.84566 366 ft 15 kts 67°
2026-05-08 06:27 -37.67750 144.84635 371 ft 11 kts 56°
2026-05-08 06:27 -37.67734 144.84727 372 ft 11 kts 82°
2026-05-08 06:27 -37.67723 144.84821 372 ft 11 kts 82°
2026-05-08 06:28 -37.67691 144.84859 374 ft 6 kts 350°
2026-05-08 06:28 -37.67654 144.84852 375 ft 6 kts 352°
2026-05-08 06:28 -37.67623 144.84846 377 ft 3 kts 351°
2026-05-08 06:28 -37.67614 144.84844 377 ft 0 kts 351°